owner,sensor,date,latitude,longitude,air_temperature,qcFlag 
COMPS,ioos:station:USF.COMPS:TAR:1,2009-12-01T00:00:00Z,28.1560,-82.7580,21.82,1111122 
COMPS,ioos:station:USF.COMPS:TAR:1,2009-12-01T00:06:00Z,28.1560,-82.7580,21.69,1111122 
COMPS,ioos:station:USF.COMPS:TAR:1,2009-12-01T00:12:00Z,28.1560,-82.7580,21.69,1111122 
COMPS,ioos:station:USF.COMPS:TAR:1,2009-12-01T00:18:00Z,28.1560,-82.7580,21.68,1111122 
COMPS,ioos:station:USF.COMPS:TAR:1,2009-12-01T00:24:00Z,28.1560,-82.7580,21.61,1111122 
COMPS,ioos:station:USF.COMPS:TAR:1,2009-12-01T00:30:00Z,28.1560,-82.7580,21.57,1111122 
COMPS,ioos:station:USF.COMPS:TAR:1,2009-12-01T00:36:00Z,28.1560,-82.7580,21.55,1111122 
COMPS,ioos:station:USF.COMPS:TAR:1,2009-12-01T00:42:00Z,28.1560,-82.7580,21.55,1111122 
COMPS,ioos:station:USF.COMPS:TAR:1,2009-12-01T00:48:00Z,28.1560,-82.7580,21.49,1111122 
COMPS,ioos:station:USF.COMPS:TAR:1,2009-12-01T00:54:00Z,28.1560,-82.7580,21.39,1111122 
COMPS,ioos:station:USF.COMPS:TAR:1,2009-12-01T01:00:00Z,28.1560,-82.7580,21.28,1111122 
COMPS,ioos:station:USF.COMPS:TAR:1,2009-12-01T01:06:00Z,28.1560,-82.7580,21.28,1111122 
COMPS,ioos:station:USF.COMPS:TAR:1,2009-12-01T01:12:00Z,28.1560,-82.7580,21.15,1111122 
COMPS,ioos:station:USF.COMPS:TAR:1,2009-12-01T01:18:00Z,28.1560,-82.7580,21.09,1111122 
COMPS,ioos:station:USF.COMPS:TAR:1,2009-12-01T01:24:00Z,28.1560,-82.7580,21.07,1111122 
COMPS,ioos:station:USF.COMPS:TAR:1,2009-12-01T01:30:00Z,28.1560,-82.7580,21.09,1111122 
COMPS,ioos:station:USF.COMPS:TAR:1,2009-12-01T01:36:00Z,28.1560,-82.7580,20.84,1111122 
COMPS,ioos:station:USF.COMPS:TAR:1,2009-12-01T01:42:00Z,28.1560,-82.7580,20.7,1111122 
COMPS,ioos:station:USF.COMPS:TAR:1,2009-12-01T01:48:00Z,28.1560,-82.7580,20.49,1111122 
COMPS,ioos:station:USF.COMPS:TAR:1,2009-12-01T01:54:00Z,28.1560,-82.7580,20.34,1111122 
COMPS,ioos:station:USF.COMPS:TAR:1,2009-12-01T02:00:00Z,28.1560,-82.7580,20.16,1111122 
COMPS,ioos:station:USF.COMPS:TAR:1,2009-12-01T02:06:00Z,28.1560,-82.7580,19.88,1111122 
COMPS,ioos:station:USF.COMPS:TAR:1,2009-12-01T02:12:00Z,28.1560,-82.7580,19.62,1111122 
COMPS,ioos:station:USF.COMPS:TAR:1,2009-12-01T02:18:00Z,28.1560,-82.7580,19.51,1111122 
COMPS,ioos:station:USF.COMPS:TAR:1,2009-12-01T02:24:00Z,28.1560,-82.7580,19.51,1111122 
COMPS,ioos:station:USF.COMPS:TAR:1,2009-12-01T02:30:00Z,28.1560,-82.7580,19.37,1111122 
COMPS,ioos:station:USF.COMPS:TAR:1,2009-12-01T02:36:00Z,28.1560,-82.7580,19.23,1111122 
COMPS,ioos:station:USF.COMPS:TAR:1,2009-12-01T02:42:00Z,28.1560,-82.7580,18.99,1111122 
COMPS,ioos:station:USF.COMPS:TAR:1,2009-12-01T02:48:00Z,28.1560,-82.7580,18.77,1111122 
COMPS,ioos:station:USF.COMPS:TAR:1,2009-12-01T02:54:00Z,28.1560,-82.7580,18.67,1111122 
COMPS,ioos:station:USF.COMPS:TAR:1,2009-12-01T03:00:00Z,28.1560,-82.7580,18.9,1111122 
COMPS,ioos:station:USF.COMPS:TAR:1,2009-12-01T03:06:00Z,28.1560,-82.7580,18.91,1111122 
COMPS,ioos:station:USF.COMPS:TAR:1,2009-12-01T03:12:00Z,28.1560,-82.7580,18.8,1111122 
COMPS,ioos:station:USF.COMPS:TAR:1,2009-12-01T03:18:00Z,28.1560,-82.7580,18.6,1111122 
COMPS,ioos:station:USF.COMPS:TAR:1,2009-12-01T03:24:00Z,28.1560,-82.7580,18.45,1111122 
COMPS,ioos:station:USF.COMPS:TAR:1,2009-12-01T03:30:00Z,28.1560,-82.7580,18.29,1111122 
COMPS,ioos:station:USF.COMPS:TAR:1,2009-12-01T03:36:00Z,28.1560,-82.7580,18.3,1111122 
COMPS,ioos:station:USF.COMPS:TAR:1,2009-12-01T03:42:00Z,28.1560,-82.7580,18.24,1111122 
COMPS,ioos:station:USF.COMPS:TAR:1,2009-12-01T03:48:00Z,28.1560,-82.7580,18.17,1111122 
COMPS,ioos:station:USF.COMPS:TAR:1,2009-12-01T03:54:00Z,28.1560,-82.7580,18.05,1111122 
COMPS,ioos:station:USF.COMPS:TAR:1,2009-12-01T04:00:00Z,28.1560,-82.7580,17.91,1111122 
COMPS,ioos:station:USF.COMPS:TAR:1,2009-12-01T04:06:00Z,28.1560,-82.7580,17.8,1111122 
COMPS,ioos:station:USF.COMPS:TAR:1,2009-12-01T04:12:00Z,28.1560,-82.7580,17.75,1111122 
COMPS,ioos:station:USF.COMPS:TAR:1,2009-12-01T04:18:00Z,28.1560,-82.7580,17.73,1111122 
COMPS,ioos:station:USF.COMPS:TAR:1,2009-12-01T04:24:00Z,28.1560,-82.7580,17.81,1111122 
COMPS,ioos:station:USF.COMPS:TAR:1,2009-12-01T04:30:00Z,28.1560,-82.7580,17.79,1111122 
COMPS,ioos:station:USF.COMPS:TAR:1,2009-12-01T04:36:00Z,28.1560,-82.7580,17.79,1111122 
COMPS,ioos:station:USF.COMPS:TAR:1,2009-12-01T04:42:00Z,28.1560,-82.7580,17.79,1111122 
COMPS,ioos:station:USF.COMPS:TAR:1,2009-12-01T04:48:00Z,28.1560,-82.7580,17.98,1111122 
COMPS,ioos:station:USF.COMPS:TAR:1,2009-12-01T04:54:00Z,28.1560,-82.7580,18.26,1111122 
COMPS,ioos:station:USF.COMPS:TAR:1,2009-12-01T05:00:00Z,28.1560,-82.7580,18.13,1111122 
COMPS,ioos:station:USF.COMPS:TAR:1,2009-12-01T05:06:00Z,28.1560,-82.7580,17.88,1111122 
COMPS,ioos:station:USF.COMPS:TAR:1,2009-12-01T05:12:00Z,28.1560,-82.7580,17.81,1111122 
COMPS,ioos:station:USF.COMPS:TAR:1,2009-12-01T05:18:00Z,28.1560,-82.7580,17.79,1111122 
COMPS,ioos:station:USF.COMPS:TAR:1,2009-12-01T05:24:00Z,28.1560,-82.7580,17.83,1111122 
COMPS,ioos:station:USF.COMPS:TAR:1,2009-12-01T05:30:00Z,28.1560,-82.7580,17.71,1111122 
COMPS,ioos:station:USF.COMPS:TAR:1,2009-12-01T05:36:00Z,28.1560,-82.7580,17.66,1111122 
COMPS,ioos:station:USF.COMPS:TAR:1,2009-12-01T05:42:00Z,28.1560,-82.7580,17.66,1111122 
COMPS,ioos:station:USF.COMPS:TAR:1,2009-12-01T05:48:00Z,28.1560,-82.7580,17.63,1111122 
COMPS,ioos:station:USF.COMPS:TAR:1,2009-12-01T05:54:00Z,28.1560,-82.7580,17.54,1111122 
COMPS,ioos:station:USF.COMPS:TAR:1,2009-12-01T06:00:00Z,28.1560,-82.7580,17.51,1111122 
COMPS,ioos:station:USF.COMPS:TAR:1,2009-12-01T06:06:00Z,28.1560,-82.7580,17.41,1111122 
COMPS,ioos:station:USF.COMPS:TAR:1,2009-12-01T06:12:00Z,28.1560,-82.7580,17.39,1111122 
COMPS,ioos:station:USF.COMPS:TAR:1,2009-12-01T06:18:00Z,28.1560,-82.7580,17.43,1111122 
COMPS,ioos:station:USF.COMPS:TAR:1,2009-12-01T06:24:00Z,28.1560,-82.7580,17.52,1111122 
COMPS,ioos:station:USF.COMPS:TAR:1,2009-12-01T06:30:00Z,28.1560,-82.7580,17.4,1111122 
COMPS,ioos:station:USF.COMPS:TAR:1,2009-12-01T06:36:00Z,28.1560,-82.7580,17.39,1111122 
COMPS,ioos:station:USF.COMPS:TAR:1,2009-12-01T06:42:00Z,28.1560,-82.7580,17.27,1111122 
COMPS,ioos:station:USF.COMPS:TAR:1,2009-12-01T06:48:00Z,28.1560,-82.7580,17.25,1111122 
COMPS,ioos:station:USF.COMPS:TAR:1,2009-12-01T06:54:00Z,28.1560,-82.7580,17.37,1111122 
COMPS,ioos:station:USF.COMPS:TAR:1,2009-12-01T07:00:00Z,28.1560,-82.7580,17.52,1111122 
COMPS,ioos:station:USF.COMPS:TAR:1,2009-12-01T07:06:00Z,28.1560,-82.7580,17.39,1111122 
COMPS,ioos:station:USF.COMPS:TAR:1,2009-12-01T07:12:00Z,28.1560,-82.7580,17.39,1111122 
COMPS,ioos:station:USF.COMPS:TAR:1,2009-12-01T07:18:00Z,28.1560,-82.7580,17.39,1111122 
COMPS,ioos:station:USF.COMPS:TAR:1,2009-12-01T07:24:00Z,28.1560,-82.7580,17.44,1111122 
COMPS,ioos:station:USF.COMPS:TAR:1,2009-12-01T07:30:00Z,28.1560,-82.7580,17.24,1111122 
COMPS,ioos:station:USF.COMPS:TAR:1,2009-12-01T07:36:00Z,28.1560,-82.7580,17.25,1111122 
COMPS,ioos:station:USF.COMPS:TAR:1,2009-12-01T07:42:00Z,28.1560,-82.7580,17.2,1111122 
COMPS,ioos:station:USF.COMPS:TAR:1,2009-12-01T07:48:00Z,28.1560,-82.7580,17.07,1111122 
COMPS,ioos:station:USF.COMPS:TAR:1,2009-12-01T07:54:00Z,28.1560,-82.7580,16.98,1111122 
COMPS,ioos:station:USF.COMPS:TAR:1,2009-12-01T08:00:00Z,28.1560,-82.7580,17.03,1111122 
COMPS,ioos:station:USF.COMPS:TAR:1,2009-12-01T08:06:00Z,28.1560,-82.7580,17.11,1111122 
COMPS,ioos:station:USF.COMPS:TAR:1,2009-12-01T08:12:00Z,28.1560,-82.7580,17.09,1111122 
COMPS,ioos:station:USF.COMPS:TAR:1,2009-12-01T08:18:00Z,28.1560,-82.7580,17.09,1111122 
COMPS,ioos:station:USF.COMPS:TAR:1,2009-12-01T08:24:00Z,28.1560,-82.7580,17.03,1111122 
COMPS,ioos:station:USF.COMPS:TAR:1,2009-12-01T08:30:00Z,28.1560,-82.7580,16.98,1111122 
COMPS,ioos:station:USF.COMPS:TAR:1,2009-12-01T08:36:00Z,28.1560,-82.7580,16.98,1111122 
COMPS,ioos:station:USF.COMPS:TAR:1,2009-12-01T08:42:00Z,28.1560,-82.7580,16.98,1111122 
COMPS,ioos:station:USF.COMPS:TAR:1,2009-12-01T08:48:00Z,28.1560,-82.7580,16.98,1111122 
COMPS,ioos:station:USF.COMPS:TAR:1,2009-12-01T08:54:00Z,28.1560,-82.7580,16.98,1111122 
COMPS,ioos:station:USF.COMPS:TAR:1,2009-12-01T09:00:00Z,28.1560,-82.7580,16.98,1111122 
COMPS,ioos:station:USF.COMPS:TAR:1,2009-12-01T09:06:00Z,28.1560,-82.7580,17.02,1111122 
COMPS,ioos:station:USF.COMPS:TAR:1,2009-12-01T09:12:00Z,28.1560,-82.7580,16.98,1111122 
COMPS,ioos:station:USF.COMPS:TAR:1,2009-12-01T09:18:00Z,28.1560,-82.7580,16.98,1111122 
COMPS,ioos:station:USF.COMPS:TAR:1,2009-12-01T09:24:00Z,28.1560,-82.7580,17.01,1111122 
COMPS,ioos:station:USF.COMPS:TAR:1,2009-12-01T09:30:00Z,28.1560,-82.7580,16.98,1111122 
COMPS,ioos:station:USF.COMPS:TAR:1,2009-12-01T09:36:00Z,28.1560,-82.7580,16.87,1111122 
COMPS,ioos:station:USF.COMPS:TAR:1,2009-12-01T09:42:00Z,28.1560,-82.7580,16.86,1111122 
COMPS,ioos:station:USF.COMPS:TAR:1,2009-12-01T09:48:00Z,28.1560,-82.7580,16.85,1111122 
COMPS,ioos:station:USF.COMPS:TAR:1,2009-12-01T09:54:00Z,28.1560,-82.7580,16.77,1111122 
COMPS,ioos:station:USF.COMPS:TAR:1,2009-12-01T10:00:00Z,28.1560,-82.7580,16.71,1111122 
COMPS,ioos:station:USF.COMPS:TAR:1,2009-12-01T10:06:00Z,28.1560,-82.7580,16.71,1111122 
COMPS,ioos:station:USF.COMPS:TAR:1,2009-12-01T10:12:00Z,28.1560,-82.7580,16.77,1111122 
COMPS,ioos:station:USF.COMPS:TAR:1,2009-12-01T10:18:00Z,28.1560,-82.7580,16.74,1111122 
COMPS,ioos:station:USF.COMPS:TAR:1,2009-12-01T10:24:00Z,28.1560,-82.7580,16.74,1111122 
COMPS,ioos:station:USF.COMPS:TAR:1,2009-12-01T10:30:00Z,28.1560,-82.7580,16.67,1111122 
COMPS,ioos:station:USF.COMPS:TAR:1,2009-12-01T10:36:00Z,28.1560,-82.7580,16.57,1111122 
COMPS,ioos:station:USF.COMPS:TAR:1,2009-12-01T10:42:00Z,28.1560,-82.7580,16.57,1111122 
COMPS,ioos:station:USF.COMPS:TAR:1,2009-12-01T10:48:00Z,28.1560,-82.7580,16.57,1111122 
COMPS,ioos:station:USF.COMPS:TAR:1,2009-12-01T10:54:00Z,28.1560,-82.7580,16.57,1111122 
COMPS,ioos:station:USF.COMPS:TAR:1,2009-12-01T11:00:00Z,28.1560,-82.7580,16.57,1111122 
COMPS,ioos:station:USF.COMPS:TAR:1,2009-12-01T11:06:00Z,28.1560,-82.7580,16.57,1111122 
COMPS,ioos:station:USF.COMPS:TAR:1,2009-12-01T11:12:00Z,28.1560,-82.7580,16.57,1111122 
COMPS,ioos:station:USF.COMPS:TAR:1,2009-12-01T11:18:00Z,28.1560,-82.7580,16.64,1111122 
COMPS,ioos:station:USF.COMPS:TAR:1,2009-12-01T11:24:00Z,28.1560,-82.7580,16.75,1111122 
COMPS,ioos:station:USF.COMPS:TAR:1,2009-12-01T11:30:00Z,28.1560,-82.7580,16.71,1111122 
COMPS,ioos:station:USF.COMPS:TAR:1,2009-12-01T11:36:00Z,28.1560,-82.7580,16.71,1111122 
COMPS,ioos:station:USF.COMPS:TAR:1,2009-12-01T11:42:00Z,28.1560,-82.7580,16.61,1111122 
COMPS,ioos:station:USF.COMPS:TAR:1,2009-12-01T11:48:00Z,28.1560,-82.7580,16.57,1111122 
COMPS,ioos:station:USF.COMPS:TAR:1,2009-12-01T11:54:00Z,28.1560,-82.7580,16.59,1111122 
COMPS,ioos:station:USF.COMPS:TAR:1,2009-12-01T12:00:00Z,28.1560,-82.7580,16.59,1111122 
COMPS,ioos:station:USF.COMPS:TAR:1,2009-12-01T12:06:00Z,28.1560,-82.7580,16.7,1111122 
COMPS,ioos:station:USF.COMPS:TAR:1,2009-12-01T12:12:00Z,28.1560,-82.7580,16.78,1111122 
COMPS,ioos:station:USF.COMPS:TAR:1,2009-12-01T12:18:00Z,28.1560,-82.7580,16.84,1111122 
COMPS,ioos:station:USF.COMPS:TAR:1,2009-12-01T12:24:00Z,28.1560,-82.7580,16.89,1111122 
COMPS,ioos:station:USF.COMPS:TAR:1,2009-12-01T12:30:00Z,28.1560,-82.7580,16.95,1111122 
COMPS,ioos:station:USF.COMPS:TAR:1,2009-12-01T12:36:00Z,28.1560,-82.7580,17.1,1111122 
COMPS,ioos:station:USF.COMPS:TAR:1,2009-12-01T12:42:00Z,28.1560,-82.7580,17.35,1111122 
COMPS,ioos:station:USF.COMPS:TAR:1,2009-12-01T12:48:00Z,28.1560,-82.7580,17.55,1111122 
COMPS,ioos:station:USF.COMPS:TAR:1,2009-12-01T12:54:00Z,28.1560,-82.7580,17.82,1111122 
COMPS,ioos:station:USF.COMPS:TAR:1,2009-12-01T13:00:00Z,28.1560,-82.7580,18.19,1111122 
COMPS,ioos:station:USF.COMPS:TAR:1,2009-12-01T13:06:00Z,28.1560,-82.7580,18.65,1111122 
COMPS,ioos:station:USF.COMPS:TAR:1,2009-12-01T13:12:00Z,28.1560,-82.7580,19.31,1111122 
COMPS,ioos:station:USF.COMPS:TAR:1,2009-12-01T13:18:00Z,28.1560,-82.7580,20.03,1111122 
COMPS,ioos:station:USF.COMPS:TAR:1,2009-12-01T13:24:00Z,28.1560,-82.7580,20.41,1111122 
COMPS,ioos:station:USF.COMPS:TAR:1,2009-12-01T13:30:00Z,28.1560,-82.7580,20.54,1111122 
COMPS,ioos:station:USF.COMPS:TAR:1,2009-12-01T13:36:00Z,28.1560,-82.7580,20.47,1111122 
COMPS,ioos:station:USF.COMPS:TAR:1,2009-12-01T13:42:00Z,28.1560,-82.7580,19.75,1111122 
COMPS,ioos:station:USF.COMPS:TAR:1,2009-12-01T13:48:00Z,28.1560,-82.7580,19.42,1111122 
COMPS,ioos:station:USF.COMPS:TAR:1,2009-12-01T13:54:00Z,28.1560,-82.7580,19.86,1111122 
COMPS,ioos:station:USF.COMPS:TAR:1,2009-12-01T14:00:00Z,28.1560,-82.7580,20.26,1111122 
COMPS,ioos:station:USF.COMPS:TAR:1,2009-12-01T14:06:00Z,28.1560,-82.7580,20.84,1111122 
COMPS,ioos:station:USF.COMPS:TAR:1,2009-12-01T14:12:00Z,28.1560,-82.7580,21.87,1111122 
COMPS,ioos:station:USF.COMPS:TAR:1,2009-12-01T14:18:00Z,28.1560,-82.7580,22.71,1111122 
COMPS,ioos:station:USF.COMPS:TAR:1,2009-12-01T14:24:00Z,28.1560,-82.7580,22.77,1111122 
COMPS,ioos:station:USF.COMPS:TAR:1,2009-12-01T14:30:00Z,28.1560,-82.7580,22.39,1111122 
COMPS,ioos:station:USF.COMPS:TAR:1,2009-12-01T14:36:00Z,28.1560,-82.7580,22.51,1111122 
COMPS,ioos:station:USF.COMPS:TAR:1,2009-12-01T14:42:00Z,28.1560,-82.7580,22.87,1111122 
COMPS,ioos:station:USF.COMPS:TAR:1,2009-12-01T14:48:00Z,28.1560,-82.7580,23.35,1111122 
COMPS,ioos:station:USF.COMPS:TAR:1,2009-12-01T14:54:00Z,28.1560,-82.7580,23.58,1111122 
COMPS,ioos:station:USF.COMPS:TAR:1,2009-12-01T15:00:00Z,28.1560,-82.7580,23.62,1111122 
COMPS,ioos:station:USF.COMPS:TAR:1,2009-12-01T15:06:00Z,28.1560,-82.7580,23.24,1111122 
COMPS,ioos:station:USF.COMPS:TAR:1,2009-12-01T15:12:00Z,28.1560,-82.7580,22.98,1111122 
COMPS,ioos:station:USF.COMPS:TAR:1,2009-12-01T15:18:00Z,28.1560,-82.7580,22.89,1111122 
COMPS,ioos:station:USF.COMPS:TAR:1,2009-12-01T15:24:00Z,28.1560,-82.7580,23.33,1111122 
COMPS,ioos:station:USF.COMPS:TAR:1,2009-12-01T15:30:00Z,28.1560,-82.7580,23.52,1111122 
COMPS,ioos:station:USF.COMPS:TAR:1,2009-12-01T15:36:00Z,28.1560,-82.7580,23.9,1111122 
COMPS,ioos:station:USF.COMPS:TAR:1,2009-12-01T15:42:00Z,28.1560,-82.7580,24.37,1111122 
COMPS,ioos:station:USF.COMPS:TAR:1,2009-12-01T15:48:00Z,28.1560,-82.7580,24.84,1111122 
COMPS,ioos:station:USF.COMPS:TAR:1,2009-12-01T15:54:00Z,28.1560,-82.7580,25.29,1111122 
COMPS,ioos:station:USF.COMPS:TAR:1,2009-12-01T16:00:00Z,28.1560,-82.7580,25.44,1111122 
COMPS,ioos:station:USF.COMPS:TAR:1,2009-12-01T16:06:00Z,28.1560,-82.7580,25.29,1111122 
COMPS,ioos:station:USF.COMPS:TAR:1,2009-12-01T16:12:00Z,28.1560,-82.7580,26.06,1111122 
COMPS,ioos:station:USF.COMPS:TAR:1,2009-12-01T16:18:00Z,28.1560,-82.7580,25.9,1111122 
COMPS,ioos:station:USF.COMPS:TAR:1,2009-12-01T16:24:00Z,28.1560,-82.7580,25.63,1111122 
COMPS,ioos:station:USF.COMPS:TAR:1,2009-12-01T16:30:00Z,28.1560,-82.7580,25.55,1111122 
COMPS,ioos:station:USF.COMPS:TAR:1,2009-12-01T16:36:00Z,28.1560,-82.7580,25.72,1111122 
COMPS,ioos:station:USF.COMPS:TAR:1,2009-12-01T16:42:00Z,28.1560,-82.7580,25.29,1111122 
COMPS,ioos:station:USF.COMPS:TAR:1,2009-12-01T16:48:00Z,28.1560,-82.7580,25.67,1111122 
COMPS,ioos:station:USF.COMPS:TAR:1,2009-12-01T16:54:00Z,28.1560,-82.7580,25.97,1111122 
COMPS,ioos:station:USF.COMPS:TAR:1,2009-12-01T17:00:00Z,28.1560,-82.7580,26.53,1111122 
COMPS,ioos:station:USF.COMPS:TAR:1,2009-12-01T17:06:00Z,28.1560,-82.7580,26.78,1111122 
COMPS,ioos:station:USF.COMPS:TAR:1,2009-12-01T17:12:00Z,28.1560,-82.7580,26.97,1111122 
COMPS,ioos:station:USF.COMPS:TAR:1,2009-12-01T17:18:00Z,28.1560,-82.7580,26.19,1111122 
COMPS,ioos:station:USF.COMPS:TAR:1,2009-12-01T17:24:00Z,28.1560,-82.7580,26.09,1111122 
COMPS,ioos:station:USF.COMPS:TAR:1,2009-12-01T17:30:00Z,28.1560,-82.7580,25.85,1111122 
COMPS,ioos:station:USF.COMPS:TAR:1,2009-12-01T17:36:00Z,28.1560,-82.7580,25.96,1111122 
COMPS,ioos:station:USF.COMPS:TAR:1,2009-12-01T17:42:00Z,28.1560,-82.7580,26.02,1111122 
COMPS,ioos:station:USF.COMPS:TAR:1,2009-12-01T17:48:00Z,28.1560,-82.7580,26.11,1111122 
COMPS,ioos:station:USF.COMPS:TAR:1,2009-12-01T17:54:00Z,28.1560,-82.7580,26.32,1111122 
COMPS,ioos:station:USF.COMPS:TAR:1,2009-12-01T18:00:00Z,28.1560,-82.7580,26.54,1111122 
COMPS,ioos:station:USF.COMPS:TAR:1,2009-12-01T18:06:00Z,28.1560,-82.7580,26.64,1111122 
COMPS,ioos:station:USF.COMPS:TAR:1,2009-12-01T18:12:00Z,28.1560,-82.7580,26.64,1111122 
COMPS,ioos:station:USF.COMPS:TAR:1,2009-12-01T18:18:00Z,28.1560,-82.7580,26.91,1111122 
COMPS,ioos:station:USF.COMPS:TAR:1,2009-12-01T18:24:00Z,28.1560,-82.7580,26.39,1111122 
COMPS,ioos:station:USF.COMPS:TAR:1,2009-12-01T18:30:00Z,28.1560,-82.7580,26.4,1111122 
COMPS,ioos:station:USF.COMPS:TAR:1,2009-12-01T18:36:00Z,28.1560,-82.7580,26.27,1111122 
COMPS,ioos:station:USF.COMPS:TAR:1,2009-12-01T18:42:00Z,28.1560,-82.7580,26.12,1111122 
COMPS,ioos:station:USF.COMPS:TAR:1,2009-12-01T18:48:00Z,28.1560,-82.7580,26.24,1111122 
COMPS,ioos:station:USF.COMPS:TAR:1,2009-12-01T18:54:00Z,28.1560,-82.7580,26.08,1111122 
COMPS,ioos:station:USF.COMPS:TAR:1,2009-12-01T19:00:00Z,28.1560,-82.7580,26.56,1111122 
COMPS,ioos:station:USF.COMPS:TAR:1,2009-12-01T19:06:00Z,28.1560,-82.7580,26.93,1111122 
COMPS,ioos:station:USF.COMPS:TAR:1,2009-12-01T19:12:00Z,28.1560,-82.7580,26.87,1111122 
COMPS,ioos:station:USF.COMPS:TAR:1,2009-12-01T19:18:00Z,28.1560,-82.7580,26.49,1111122 
COMPS,ioos:station:USF.COMPS:TAR:1,2009-12-01T19:24:00Z,28.1560,-82.7580,26.68,1111122 
COMPS,ioos:station:USF.COMPS:TAR:1,2009-12-01T19:30:00Z,28.1560,-82.7580,26.46,1111122 
COMPS,ioos:station:USF.COMPS:TAR:1,2009-12-01T19:36:00Z,28.1560,-82.7580,26.38,1111122 
COMPS,ioos:station:USF.COMPS:TAR:1,2009-12-01T19:42:00Z,28.1560,-82.7580,26.33,1111122 
COMPS,ioos:station:USF.COMPS:TAR:1,2009-12-01T19:48:00Z,28.1560,-82.7580,26.44,1111122 
COMPS,ioos:station:USF.COMPS:TAR:1,2009-12-01T19:54:00Z,28.1560,-82.7580,26.51,1111122 
COMPS,ioos:station:USF.COMPS:TAR:1,2009-12-01T20:00:00Z,28.1560,-82.7580,26.81,1111122 
COMPS,ioos:station:USF.COMPS:TAR:1,2009-12-01T20:06:00Z,28.1560,-82.7580,26.93,1111122 
COMPS,ioos:station:USF.COMPS:TAR:1,2009-12-01T20:12:00Z,28.1560,-82.7580,26.76,1111122 
COMPS,ioos:station:USF.COMPS:TAR:1,2009-12-01T20:18:00Z,28.1560,-82.7580,26.63,1111122 
COMPS,ioos:station:USF.COMPS:TAR:1,2009-12-01T20:24:00Z,28.1560,-82.7580,26.61,1111122 
COMPS,ioos:station:USF.COMPS:TAR:1,2009-12-01T20:30:00Z,28.1560,-82.7580,26.26,1111122 
COMPS,ioos:station:USF.COMPS:TAR:1,2009-12-01T20:36:00Z,28.1560,-82.7580,26.19,1111122 
COMPS,ioos:station:USF.COMPS:TAR:1,2009-12-01T20:42:00Z,28.1560,-82.7580,26.01,1111122 
COMPS,ioos:station:USF.COMPS:TAR:1,2009-12-01T20:48:00Z,28.1560,-82.7580,25.93,1111122 
COMPS,ioos:station:USF.COMPS:TAR:1,2009-12-01T20:54:00Z,28.1560,-82.7580,25.99,1111122 
COMPS,ioos:station:USF.COMPS:TAR:1,2009-12-01T21:00:00Z,28.1560,-82.7580,26.23,1111122 
COMPS,ioos:station:USF.COMPS:TAR:1,2009-12-01T21:06:00Z,28.1560,-82.7580,26.07,1111122 
COMPS,ioos:station:USF.COMPS:TAR:1,2009-12-01T21:12:00Z,28.1560,-82.7580,25.97,1111122 
COMPS,ioos:station:USF.COMPS:TAR:1,2009-12-01T21:18:00Z,28.1560,-82.7580,25.75,1111122 
COMPS,ioos:station:USF.COMPS:TAR:1,2009-12-01T21:24:00Z,28.1560,-82.7580,25.76,1111122 
COMPS,ioos:station:USF.COMPS:TAR:1,2009-12-01T21:30:00Z,28.1560,-82.7580,25.6,1111122 
COMPS,ioos:station:USF.COMPS:TAR:1,2009-12-01T21:36:00Z,28.1560,-82.7580,25.48,1111122 
COMPS,ioos:station:USF.COMPS:TAR:1,2009-12-01T21:42:00Z,28.1560,-82.7580,25.34,1111122 
COMPS,ioos:station:USF.COMPS:TAR:1,2009-12-01T21:48:00Z,28.1560,-82.7580,25.27,1111122 
COMPS,ioos:station:USF.COMPS:TAR:1,2009-12-01T21:54:00Z,28.1560,-82.7580,25.16,1111122 
COMPS,ioos:station:USF.COMPS:TAR:1,2009-12-01T22:00:00Z,28.1560,-82.7580,24.99,1111122 
COMPS,ioos:station:USF.COMPS:TAR:1,2009-12-01T22:06:00Z,28.1560,-82.7580,24.92,1111122 
COMPS,ioos:station:USF.COMPS:TAR:1,2009-12-01T22:12:00Z,28.1560,-82.7580,24.81,1111122 
COMPS,ioos:station:USF.COMPS:TAR:1,2009-12-01T22:18:00Z,28.1560,-82.7580,24.68,1111122 
COMPS,ioos:station:USF.COMPS:TAR:1,2009-12-01T22:24:00Z,28.1560,-82.7580,24.66,1111122 
COMPS,ioos:station:USF.COMPS:TAR:1,2009-12-01T22:30:00Z,28.1560,-82.7580,24.44,1111122 
COMPS,ioos:station:USF.COMPS:TAR:1,2009-12-01T22:36:00Z,28.1560,-82.7580,24.35,1111122 
COMPS,ioos:station:USF.COMPS:TAR:1,2009-12-01T22:42:00Z,28.1560,-82.7580,24.21,1111122 
COMPS,ioos:station:USF.COMPS:TAR:1,2009-12-01T22:48:00Z,28.1560,-82.7580,24.06,1111122 
COMPS,ioos:station:USF.COMPS:TAR:1,2009-12-01T22:54:00Z,28.1560,-82.7580,23.94,1111122 
COMPS,ioos:station:USF.COMPS:TAR:1,2009-12-01T23:00:00Z,28.1560,-82.7580,23.86,1111122 
COMPS,ioos:station:USF.COMPS:TAR:1,2009-12-01T23:06:00Z,28.1560,-82.7580,23.86,1111122 
COMPS,ioos:station:USF.COMPS:TAR:1,2009-12-01T23:12:00Z,28.1560,-82.7580,23.86,1111122 
COMPS,ioos:station:USF.COMPS:TAR:1,2009-12-01T23:18:00Z,28.1560,-82.7580,23.83,1111122 
COMPS,ioos:station:USF.COMPS:TAR:1,2009-12-01T23:24:00Z,28.1560,-82.7580,23.76,1111122 
COMPS,ioos:station:USF.COMPS:TAR:1,2009-12-01T23:30:00Z,28.1560,-82.7580,23.64,1111122 
COMPS,ioos:station:USF.COMPS:TAR:1,2009-12-01T23:36:00Z,28.1560,-82.7580,23.46,1111122 
COMPS,ioos:station:USF.COMPS:TAR:1,2009-12-01T23:42:00Z,28.1560,-82.7580,23.31,1111122 
COMPS,ioos:station:USF.COMPS:TAR:1,2009-12-01T23:48:00Z,28.1560,-82.7580,23.21,1111122 
COMPS,ioos:station:USF.COMPS:TAR:1,2009-12-01T23:54:00Z,28.1560,-82.7580,23.13,1111122 
COMPS,ioos:station:USF.COMPS:TAR:1,2009-12-02T00:00:00Z,28.1560,-82.7580,23.05,1111122 
COMPS,ioos:station:USF.COMPS:TAR:1,2009-12-02T00:06:00Z,28.1560,-82.7580,22.99,1111122 
COMPS,ioos:station:USF.COMPS:TAR:1,2009-12-02T00:12:00Z,28.1560,-82.7580,22.91,1111122 
COMPS,ioos:station:USF.COMPS:TAR:1,2009-12-02T00:18:00Z,28.1560,-82.7580,22.87,1111122 
COMPS,ioos:station:USF.COMPS:TAR:1,2009-12-02T00:24:00Z,28.1560,-82.7580,22.81,1111122 
COMPS,ioos:station:USF.COMPS:TAR:1,2009-12-02T00:30:00Z,28.1560,-82.7580,22.73,1111122 
COMPS,ioos:station:USF.COMPS:TAR:1,2009-12-02T00:36:00Z,28.1560,-82.7580,22.64,1111122 
COMPS,ioos:station:USF.COMPS:TAR:1,2009-12-02T00:42:00Z,28.1560,-82.7580,22.64,1111122 
COMPS,ioos:station:USF.COMPS:TAR:1,2009-12-02T00:48:00Z,28.1560,-82.7580,22.54,1111122 
COMPS,ioos:station:USF.COMPS:TAR:1,2009-12-02T00:54:00Z,28.1560,-82.7580,22.5,1111122 
COMPS,ioos:station:USF.COMPS:TAR:1,2009-12-02T01:00:00Z,28.1560,-82.7580,22.38,1111122 
COMPS,ioos:station:USF.COMPS:TAR:1,2009-12-02T01:06:00Z,28.1560,-82.7580,22.35,1111122 
COMPS,ioos:station:USF.COMPS:TAR:1,2009-12-02T01:12:00Z,28.1560,-82.7580,22.23,1111122 
COMPS,ioos:station:USF.COMPS:TAR:1,2009-12-02T01:18:00Z,28.1560,-82.7580,22.23,1111122 
COMPS,ioos:station:USF.COMPS:TAR:1,2009-12-02T01:24:00Z,28.1560,-82.7580,22.26,1111122 
COMPS,ioos:station:USF.COMPS:TAR:1,2009-12-02T01:30:00Z,28.1560,-82.7580,22.11,1111122 
COMPS,ioos:station:USF.COMPS:TAR:1,2009-12-02T01:36:00Z,28.1560,-82.7580,22.01,1111122 
COMPS,ioos:station:USF.COMPS:TAR:1,2009-12-02T01:42:00Z,28.1560,-82.7580,21.96,1111122 
COMPS,ioos:station:USF.COMPS:TAR:1,2009-12-02T01:48:00Z,28.1560,-82.7580,21.85,1111122 
COMPS,ioos:station:USF.COMPS:TAR:1,2009-12-02T01:54:00Z,28.1560,-82.7580,21.76,1111122 
COMPS,ioos:station:USF.COMPS:TAR:1,2009-12-02T02:00:00Z,28.1560,-82.7580,21.69,1111122 
COMPS,ioos:station:USF.COMPS:TAR:1,2009-12-02T02:06:00Z,28.1560,-82.7580,21.58,1111122 
COMPS,ioos:station:USF.COMPS:TAR:1,2009-12-02T02:12:00Z,28.1560,-82.7580,21.55,1111122 
COMPS,ioos:station:USF.COMPS:TAR:1,2009-12-02T02:18:00Z,28.1560,-82.7580,21.56,1111122 
COMPS,ioos:station:USF.COMPS:TAR:1,2009-12-02T02:24:00Z,28.1560,-82.7580,21.6,1111122 
COMPS,ioos:station:USF.COMPS:TAR:1,2009-12-02T02:30:00Z,28.1560,-82.7580,21.55,1111122 
COMPS,ioos:station:USF.COMPS:TAR:1,2009-12-02T02:36:00Z,28.1560,-82.7580,21.55,1111122 
COMPS,ioos:station:USF.COMPS:TAR:1,2009-12-02T02:42:00Z,28.1560,-82.7580,21.46,1111122 
COMPS,ioos:station:USF.COMPS:TAR:1,2009-12-02T02:48:00Z,28.1560,-82.7580,21.44,1111122 
COMPS,ioos:station:USF.COMPS:TAR:1,2009-12-02T02:54:00Z,28.1560,-82.7580,21.41,1111122 
COMPS,ioos:station:USF.COMPS:TAR:1,2009-12-02T03:00:00Z,28.1560,-82.7580,21.39,1111122 
COMPS,ioos:station:USF.COMPS:TAR:1,2009-12-02T03:06:00Z,28.1560,-82.7580,21.28,1111122 